Форум фильмов, сериалов и мультфильмов

Объявление

Информация о пользователе

Привет, Гость! Войдите или зарегистрируйтесь.


Вы здесь » Форум фильмов, сериалов и мультфильмов » Зарубежная музыка


Зарубежная музыка

Тем 24331 страница 24360 из 30281

Тема Ответов Просмотров Последнее сообщение
24331 Nianaro - Cyborgs  magikgate
0 8 23.03.2015 16:37:28  magikgate
24332 Mcaree & Clancy - Morrigan  magikgate
0 8 23.03.2015 16:30:26  magikgate
0 8 23.03.2015 16:22:50  magikgate
24334 Leolife - Raider  magikgate
0 8 23.03.2015 16:17:24  magikgate
24335 Kinetica - One Dream  magikgate
0 8 23.03.2015 16:10:16  magikgate
0 9 23.03.2015 16:04:03  magikgate
0 8 23.03.2015 15:47:18  magikgate
24338 Fred Baker - Rebirth  magikgate
0 18 23.03.2015 15:42:24  magikgate
0 8 23.03.2015 15:27:15  magikgate
0 11 23.03.2015 13:11:29  magikgate
0 9 23.03.2015 11:45:23  magikgate
0 73 23.03.2015 10:10:48  magikgate
0 8 23.03.2015 09:42:50  magikgate
0 11 23.03.2015 09:08:48  magikgate
0 8 23.03.2015 08:16:26  magikgate
0 8 23.03.2015 08:14:15  magikgate
0 10 23.03.2015 08:12:41  magikgate
0 8 23.03.2015 08:11:06  magikgate
0 8 23.03.2015 08:09:32  magikgate
0 11 23.03.2015 08:07:11  magikgate
0 8 23.03.2015 08:05:24  magikgate
0 8 23.03.2015 07:59:53  magikgate
0 8 23.03.2015 07:58:24  magikgate
0 8 23.03.2015 07:56:57  magikgate
0 8 23.03.2015 07:55:28  magikgate
0 232 22.03.2015 19:30:37  magikgate
0 10 22.03.2015 18:09:42  magikgate
0 41 22.03.2015 15:31:23  magikgate
0 9 22.03.2015 15:28:08  magikgate
0 9 22.03.2015 15:26:56  magikgate

Вы здесь » Форум фильмов, сериалов и мультфильмов » Зарубежная музыка